Regional Weather Roundup
Issued by NWS

Home | Current Version | Previous Version | Text Only | Print | Product List | Glossary Off
Versions: 1 2 3 4 5 6 7 8 9 10 11 12 13 14 15 16 17 18 19 20 21 22 23 24 25 26 27 28 29 30 31 32 33 34 35 36 37 38 39 40 41 42 43 44 45 46 47 48 49 50

000
ASUS43 KMKX 230300
RWRWI

WISCONSIN REGIONAL WEATHER ROUNDUP
NATIONAL WEATHER SERVICE MILWAUKEE/SULLIVAN WI
900 PM CST MON DEC 22 2014

NOTE: "FAIR" INDICATES FEW OR NO CLOUDS BELOW 12,000 FEET WITH NO
SIGNIFICANT WEATHER AND/OR OBSTRUCTIONS TO VISIBILITY.

WIZ001-002-006>008-014>016-023>028-230400-
NORTHWEST WISCONSIN

CITY           SKY/WX    TMP DP  RH WIND       PRES   REMARKS
SUPERIOR ARPT  CLOUDY    36  34  94 E7        29.74S FOG     WCI  30
ASHLAND        CLOUDY    34  32  92 NE7       29.76S WCI  28
HAYWARD        CLOUDY    35  31  85 E6        29.70S FOG     WCI  30
SIREN          CLOUDY    35  32  90 E6        29.69R WCI  30
CUMBERLAND     CLOUDY    34  32  93 E10       29.67S WCI  26
RICE LAKE      CLOUDY    35  32  88 E9        29.69S WCI  28
CHETEK         CLOUDY    35  32  89 E7        29.67F WCI  29
LADYSMITH      CLOUDY    35  32  88 E9        29.71S WCI  28
EAU CLAIRE     LGT SNOW  33  31  92 NE9       29.65S FOG     WCI  25
MENOMONIE      RAIN      35  33  92 E12       29.66R WCI  27
NEW RICHMOND   CLOUDY    35  33  92 E13       29.64S FOG     WCI  26
OSCEOLA        CLOUDY    36  35  96 E10       29.67S WCI  28
$$

WIZ003>005-009-010-017-018-230400-
NORTH CENTRAL WISCONSIN

CITY           SKY/WX    TMP DP  RH WIND       PRES   REMARKS
MANITOWISH WTR LGT SNOW  31  31  99 E8        29.73F WCI  24
ARBOR VITAE    LGT SNOW  32  30  94 E6        29.74S WCI  26
WOODRUFF       LGT SNOW  32  30  94 E6        29.74S WCI  26
RHINELANDER    LGT SNOW  31  28  89 E14       29.73F FOG     WCI  21
EAGLE RIVER    LGT SNOW  31  30  97 E9        29.75S WCI  23
LAND O LAKES   LGT SNOW  32  30  92 E8        29.76F WCI  24
PHILLIPS       CLOUDY    32  30  92 E8        29.70F WCI  25
TOMAHAWK       LGT SNOW  31  29  92 E5        29.72F WCI  27
MEDFORD        LGT SNOW  32  30  94 E14       29.68S WCI  22
MERRILL        LGT SNOW  32  31  98 E9G16     29.71F WCI  24
$$

WIZ029-030-035-036-043>047-230400-
CENTRAL WISCONSIN

CITY           SKY/WX    TMP DP  RH WIND       PRES   REMARKS
WAUSAU         LGT SNOW  32  31  96 E14       29.68F FOG     WCI  22
MOSINEE        LGT SNOW  32  32 100 E12       29.69F WCI  23
MARSHFIELD     LGT SNOW  33  31  92 E14       29.66F FOG     WCI  23
STEVENS POINT  LGT SNOW  31  31  97 E12       29.69F WCI  22
WAUPACA        LGT SNOW  35  33  94 E7        29.71F WCI  29
WAUTOMA        MIX PCPN  34  34 100 NE8       29.68F FOG     WCI  27
WISC RAPIDS    LGT SNOW  33  30  88 E14       29.67F FOG     WCI  23
CAMP DOUGLAS   CLOUDY    32  32 100 E12       29.64S FOG     WCI  23
$$

WIZ011>013-019>022-031-037>040-048>050-230400-
NORTHEAST WISCONSIN

CITY           SKY/WX    TMP DP  RH WIND       PRES   REMARKS
ANTIGO         LGT SNOW  31  30  96 E13G18    29.72F WCI  21
SHAWANO        LGT SNOW  34  33  95 E10       29.75F VSB 3/4 WCI  26
OCONTO         CLOUDY    32  32 100 E7        29.78F WCI  26
STURGEON BAY   CLOUDY    34  30  86 E14G20    29.80F WCI  24
GREEN BAY      LGT SNOW  35  33  92 MISG      29.75F FOG
MANITOWOC      NOT AVBL
APPLETON       NOT AVBL
CLINTONVILLE   LGT SNOW  32  32 100 E9        29.73F WCI  24
OSHKOSH        LGT RAIN  36  33  89 E13       29.68F FOG     WCI  27
$$

WIZ032>034-041-042-053>061-230400-
SOUTHWEST WISCONSIN

CITY           SKY/WX    TMP DP  RH WIND       PRES   REMARKS
LA CROSSE      CLOUDY    36  33  89 E13       29.60F WCI  27
SPARTA         CLOUDY    33  33  99 E9        29.64S WCI  26
VIROQUA        CLOUDY    33  33 100 E12       29.58F WCI  24
BOSCOBEL       CLOUDY    36  34  92 NE5       29.59F FOG     WCI  32
PRAIRIE DU CHI CLOUDY    37  35  93 E6        29.57F FOG     WCI  32
PLATTEVILLE    CLOUDY    36  35  97 CALM      29.57F
$$

WIZ056-057-062-063-064-067-068-230400-
SOUTH CENTRAL WISCONSIN

CITY           SKY/WX    TMP DP  RH WIND       PRES   REMARKS
REEDSBURG      CLOUDY    33  33  99 E6        29.62S FOG     WCI  28
BARABOO/DELLS  FOG       34  33  96 E7        29.62F VSB 1   WCI  28
LONE ROCK      CLOUDY    39  34  81 E12       29.61F HAZE    WCI  32
MINERAL POINT  LGT RAIN  36  36 100 E9        29.57F WCI  29
MADISON        DRIZZLE   37  35  92 E7        29.62F FOG     WCI  32
MIDDLETON      CLOUDY    37  37 100 E7        29.63S WCI  31
WATERTOWN      CLOUDY    37  37 100 E9        29.64S FOG     WCI  30
MONROE         FOG       36  36 100 E8        29.59S VSB 1/4 WCI  29
JANESVILLE     FOG       37  37 100 E8        29.61F VSB 1   WCI  31
$$

WIZ051-052-058>065-066-070>072-230400-
SOUTHEAST WISCONSIN

CITY           SKY/WX    TMP DP  RH WIND       PRES   REMARKS
MILWAUKEE      LGT RAIN  39  37  92 SE17G24   29.68F FOG     WCI  30
WAUKESHA       LGT RAIN  36  36 100 E14       29.66F WCI  27
MILWAUKEE/TIMM LGT RAIN  39  36  87 SE12G20   29.68F FOG     WCI  32
RACINE         LGT RAIN  40  38  93 SE12      29.69F FOG     WCI  33
BURLINGTON     MIX PCPN  37  37  99 SE10      29.65S WCI  30
KENOSHA        LGT RAIN  40  38  93 SE14      29.66F FOG     WCI  32
FOND DU LAC    LGT RAIN  38  35  89 SE17G23   29.66F WCI  28
SHEBOYGAN      LGT RAIN  38 N/A N/A MISG      29.71F
WEST BEND      LGT RAIN  37  36  93 E13G18    29.68F WCI  29
JUNEAU         RAIN      37  36  97 E12       29.66F WCI  29
$$

LSZ147-162-230400-
LAKE SUPERIOR

STATION/POSITION TIME  TEMP    WIND        PRES    WAVE
                       AIR SEA DIR/SP/G            HT/PER
                 (UTC) (F)     (DEG/KT/KT) (MB)    (FT/S)
DEVILS ISLAND    0200   36      90/ 11/ 12 1009.0R
PORT WING        0200   34      30/  9/ 10 1007.8S
SAXON HARBOR     0200   37      CALM  /  1 1007.8S
$$

LMZ867-665-643>646-230400-
LAKE MICHIGAN

STATION/POSITION TIME  TEMP    WIND        PRES    WAVE
                       AIR SEA DIR/SP/G            HT/PER
                 (UTC) (F)     (DEG/KT/KT) (MB)    (FT/S)
CHAMBERS ISLAND  0200   33      70/ 11/ 14 1010.2
NORTHPORT PIER   0200   35     100/ 17/ 20 1010.8F
SISTER BAY       0213           90/ 12/ 19   N/A
ALGOMA LAKESHORE 0215          110/ 23/ 28   N/A
KEWAUNEE LAKESHO 0200   36     120/ 18/ 24 1007.6F
SHEBOYGAN LAKESH 0200   38 36  120/ 25/ 29 1007.0F
PORT WASHINGTON  0240   40     130/ 14/ 19 1006.8F
MILWAUKEE LAKESH 0200   39     120/ 16/ 19   N/A
KENOSHA   LAKESH 0200   39     150/ 17/ 21 1005.1F
$$

TC  - TEMPERATURE IN CELSIUS
VSB - VISIBILITY IN STATUTE MILES
WCI - WIND CHILL INDEX
HX  - HEAT INDEX



USA.gov is the U.S. government's official web portal to all federal, state and local government web resources and services.